Tracking 28792 objects as of 23-Apr-2024
HD Live streaming from Space Station
objects crossing your sky now

IUS R/B(2)

Track IUS R/B(2) now!


NORAD ID: 25869
Int'l Code: 1999-040D
Perigee: 1,877.3 km
Apogee: 71,455.8 km
Inclination: 30.3 °
Period: 1,480.9 minutes
Semi major axis: 43037 km
RCS: 4.4547 m2 (large)
Launch date: July 23, 1999
Source: United States (US)
Launch site: AIR FORCE EASTERN TEST RANGE (AFETR)

Note: This is a ROCKET BODY
Your satellite tracking list
Your tracking list is empty




NASA's NSSDC Master Catalog

Two Line Element Set (TLE):
1 25869U 99040D   24107.70926694 -.00000553  00000-0  00000-0 0  9993
2 25869  30.2972 246.4706 8083474 295.8730   4.8618  0.97237073 87855
Source of the keplerian elements: AFSPC